North Las Vegas, NV

7:48 PM PDT on October 19, 2017 (GMT -0700)
North Las Vegas

Weather History for KVGT - August, 2013

Change the Weather History Date:

Monday, August 19, 2013

  Actual Average Record
Temperature  
Mean Temperature 84 °F 89 °F  
Max Temperature 96 °F 101 °F 106 °F (2015)
Min Temperature 73 °F 77 °F 73 °F (2013)
Degree Days  
Heating Degree Days 0 0  
Month to date heating degree days 0  
Since 1 July heating degree days 0  
Cooling Degree Days 19 24  
Month to date cooling degree days 479  
Year to date cooling degree days 2375  
Growing Degree Days 34 (Base 50)    
Moisture  
Dew Point 61 °F    
Average Humidity 48    
Maximum Humidity 76    
Minimum Humidity 27    
Precipitation  
Precipitation 0.04 in 0.02 in 0.15 in (2003)
Month to date precipitation 0.28  
Year to date precipitation 3.39  
Sea Level Pressure  
Sea Level Pressure 29.95 in    
Wind  
Wind Speed 6 mph (SE)    
Max Wind Speed 13 mph    
Max Gust Speed -    
Visibility 10 miles    
Events Rain    
T = Trace of Precipitation, MM = Missing Value Source: NWS Daily Summary

Daily Weather History Graph

Daily Weather History Graph

Search for Another Location

Airport or City:

Trip Planner

Search our weather history database for the weather conditions in past years. The results will help you decide how hot, cold, wet, or windy it might be!

Date:

Astronomy

Aug. 19, 2013 Rise Set
Actual Time 6:02 AM PDT 7:25 PM PDT
Civil Twilight 5:35 AM PDT 7:52 PM PDT
Nautical Twilight 5:03 AM PDT 8:24 PM PDT
Astronomical Twilight 4:29 AM PDT 8:58 PM PDT
Moon 6:19 PM PDT (8/19) 4:27 AM PDT (8/19)
Length of Visible Light 14h 17m
Length of Day
13h 23m
Waxing Gibbous, 98% of the Moon is Illuminated
Aug 19
Waxing Gibbous
Aug 20
Full
Aug 28
Last Quarter
Sep 5
New
Sep 12
First Quarter

Hourly Weather History & Observations

Time (PDT) Temp. Heat Index Dew Point Humidity Pressure Visibility Wind Dir Wind Speed Gust Speed Precip Events Conditions
12:53 AM 75.0 °F - 66.0 °F 73% 30.06 in 10.0 mi SW 12.7 mph - 0.04 in Rain Light Rain
1:53 AM 75.9 °F - 64.9 °F 69% 30.04 in 10.0 mi SSW 9.2 mph - 0.00 in   Partly Cloudy
2:53 AM 75.0 °F - 64.9 °F 71% 29.99 in 10.0 mi Calm Calm - 0.00 in   Mostly Cloudy
3:53 AM 73.9 °F - 66.0 °F 76% 30.01 in 10.0 mi SE 6.9 mph - N/A   Mostly Cloudy
4:53 AM 73.9 °F - 66.0 °F 76% 30.02 in 10.0 mi NW 8.1 mph - N/A   Clear
5:53 AM 73.9 °F - 66.0 °F 76% 30.01 in 10.0 mi NW 4.6 mph - N/A   Clear
6:53 AM 73.0 °F - 64.9 °F 76% 30.00 in 10.0 mi NNW 4.6 mph - N/A   Clear
7:53 AM 78.1 °F - 64.9 °F 64% 30.01 in 10.0 mi Calm Calm - N/A   Clear
8:53 AM 82.0 °F 82.7 °F 61.0 °F 49% 30.02 in 10.0 mi NNE 3.5 mph - N/A   Clear
9:53 AM 84.0 °F 84.0 °F 60.1 °F 44% 30.02 in 10.0 mi ESE 4.6 mph - N/A   Clear
10:53 AM 84.9 °F 84.4 °F 59.0 °F 41% 30.02 in 10.0 mi East 3.5 mph - N/A   Clear
11:53 AM 88.0 °F 87.1 °F 59.0 °F 37% 30.01 in 10.0 mi Variable 3.5 mph - N/A   Clear
12:53 PM 91.9 °F 90.3 °F 55.9 °F 30% 29.98 in 10.0 mi Variable 3.5 mph - N/A   Clear
1:53 PM 91.9 °F 90.0 °F 55.0 °F 29% 29.95 in 10.0 mi SSE 4.6 mph - N/A   Clear
2:53 PM 93.0 °F 91.7 °F 57.0 °F 30% 29.92 in 10.0 mi Calm Calm - N/A   Clear
3:53 PM 93.9 °F 92.6 °F 57.0 °F 29% 29.88 in 10.0 mi SE 5.8 mph - N/A   Clear
4:53 PM 95.0 °F 93.4 °F 55.9 °F 27% 29.86 in 10.0 mi SSE 6.9 mph - N/A   Clear
5:53 PM 93.9 °F 92.6 °F 57.0 °F 29% 29.85 in 10.0 mi ESE 8.1 mph - N/A   Clear
6:53 PM 93.0 °F 92.0 °F 57.9 °F 31% 29.85 in 10.0 mi East 4.6 mph - N/A   Clear
7:53 PM 93.0 °F 92.0 °F 57.9 °F 31% 29.85 in 10.0 mi SE 6.9 mph - N/A   Clear
8:53 PM 90.0 °F 89.7 °F 60.1 °F 37% 29.87 in 10.0 mi ESE 5.8 mph - N/A   Clear
9:53 PM 90.0 °F 89.7 °F 60.1 °F 37% 29.87 in 10.0 mi SE 4.6 mph - N/A   Clear
10:53 PM 89.1 °F 90.0 °F 63.0 °F 42% 29.87 in 10.0 mi SSW 5.8 mph - N/A   Clear
11:53 PM 87.1 °F 87.8 °F 63.0 °F 44% 29.87 in 10.0 mi NW 5.8 mph - N/A   Clear